• In Belgium
  • List of Countries
  • For 7 days
  • Water Temperature
  • Satellite Maps
  • Weather Map
  • Weather Widgets
  • user-avatar
    Login

    Hourly Weather Darwin

    Today, 20 August, Monday

    Time Temperature Precipitation Wind Pressure Humidity
    00:00 +28°C° 0 mm 3 mps 761 mmHg 48%
    01:00 +27°C° 0 mm 4 mps 761 mmHg 43%
    02:00 +26°C° 0 mm 5 mps 761 mmHg 37%
    03:00 +25°C° 0 mm 3 mps 760 mmHg 39%
    04:00 +23°C° 0 mm 4 mps 761 mmHg 36%
    05:00 +23°C° 0 mm 5 mps 761 mmHg 32%
    06:00 +22°C° 0 mm 6 mps 761 mmHg 29%
    07:00 +24°C° 0 mm 7 mps 761 mmHg 27%
    08:00 +27°C° 0 mm 7 mps 761 mmHg 25%
    09:00 +29°C° 0 mm 8 mps 761 mmHg 22%
    10:00 +30°C° 0 mm 7 mps 761 mmHg 20%
    11:00 +33°C° 0 mm 7 mps 761 mmHg 17%
    12:00 +35°C° 0 mm 6 mps 761 mmHg 15%
    13:00 +36°C° 0 mm 6 mps 760 mmHg 15%
    14:00 +36°C° 0 mm 5 mps 759 mmHg 16%
    15:00 +37°C° 0 mm 4 mps 759 mmHg 16%
    16:00 +35°C° 0 mm 4 mps 759 mmHg 19%
    17:00 +34°C° 0 mm 3 mps 759 mmHg 21%
    18:00 +31°C° 0 mm 3 mps 759 mmHg 24%
    19:00 +30°C° 0 mm 3 mps 759 mmHg 27%
    20:00 +28°C° 0 mm 2 mps 759 mmHg 30%
    21:00 +27°C° 0 mm 2 mps 759 mmHg 33%
    22:00 +26°C° 0 mm 2 mps 760 mmHg 32%
    23:00 +25°C° 0 mm 3 mps 760 mmHg 31%

    Tomorrow, 21 August, Tuesday

    Time Temperature Precipitation Wind Pressure Humidity
    00:00 +25°C° 0 mm 3 mps 760 mmHg 30%
    01:00 +24°C° 0 mm 3 mps 760 mmHg 33%
    02:00 +23°C° 0 mm 4 mps 760 mmHg 37%
    03:00 +22°C° 0 mm 5 mps 760 mmHg 40%
    04:00 +22°C° 0 mm 5 mps 760 mmHg 43%
    05:00 +21°C° 0 mm 5 mps 760 mmHg 46%
    06:00 +20°C° 0 mm 5 mps 760 mmHg 49%
    07:00 +22°C° 0 mm 5 mps 760 mmHg 45%
    08:00 +25°C° 0 mm 5 mps 761 mmHg 42%
    09:00 +27°C° 0 mm 5 mps 761 mmHg 38%
    10:00 +29°C° 0 mm 5 mps 760 mmHg 33%
    11:00 +33°C° 0 mm 4 mps 760 mmHg 29%
    12:00 +35°C° 0 mm 4 mps 759 mmHg 25%
    13:00 +35°C° 0 mm 4 mps 759 mmHg 24%
    14:00 +36°C° 0 mm 5 mps 758 mmHg 24%
    15:00 +36°C° 0 mm 5 mps 757 mmHg 24%
    16:00 +35°C° 0 mm 4 mps 757 mmHg 29%
    17:00 +33°C° 0 mm 4 mps 757 mmHg 33%
    18:00 +30°C° 0 mm 4 mps 757 mmHg 37%
    19:00 +29°C° 0 mm 3 mps 758 mmHg 44%
    20:00 +27°C° 0 mm 3 mps 759 mmHg 50%
    21:00 +26°C° 0 mm 2 mps 759 mmHg 57%
    22:00 +26°C° 0 mm 2 mps 759 mmHg 60%
    23:00 +25°C° 0 mm 1 mps 760 mmHg 63%

    Day after tomorrow, 22 August, Wednesday

    Time Temperature Precipitation Wind Pressure Humidity
    00:00 +25°C° 0 mm 1 mps 760 mmHg 67%
    01:00 +25°C° 0 mm 1 mps 760 mmHg 68%
    02:00 +24°C° 0 mm 1 mps 759 mmHg 69%
    03:00 +24°C° 0 mm 1 mps 759 mmHg 70%
    04:00 +24°C° 0 mm 1 mps 759 mmHg 72%
    05:00 +24°C° 0 mm 2 mps 759 mmHg 75%
    06:00 +23°C° 0 mm 2 mps 759 mmHg 77%
    07:00 +25°C° 0.1 mm 3 mps 760 mmHg 69%
    08:00 +27°C° 0.1 mm 3 mps 760 mmHg 61%
    09:00 +29°C° 0.1 mm 4 mps 760 mmHg 54%
    10:00 +32°C° 0 mm 4 mps 760 mmHg 47%
    11:00 +34°C° 0 mm 3 mps 760 mmHg 40%
    12:00 +36°C° 0 mm 3 mps 759 mmHg 33%
    13:00 +36°C° 0 mm 3 mps 759 mmHg 32%
    14:00 +37°C° 0 mm 4 mps 758 mmHg 32%
    15:00 +37°C° 0 mm 4 mps 757 mmHg 31%
    16:00 +35°C° 0 mm 4 mps 757 mmHg 37%
    17:00 +34°C° 0 mm 3 mps 757 mmHg 42%
    18:00 +31°C° 0 mm 3 mps 757 mmHg 47%
    19:00 +29°C° 0 mm 3 mps 758 mmHg 53%
    20:00 +28°C° 0 mm 3 mps 759 mmHg 59%
    21:00 +27°C° 0 mm 3 mps 759 mmHg 66%
    22:00 +26°C° 0 mm 2 mps 760 mmHg 69%
    23:00 +26°C° 0 mm 2 mps 760 mmHg 72%

    23 August, Thursday

    Time Temperature Precipitation Wind Pressure Humidity
    00:00 +26°C° 0 mm 1 mps 760 mmHg 76%
    01:00 +26°C° 0 mm 1 mps 760 mmHg 77%
    02:00 +25°C° 0 mm 1 mps 759 mmHg 78%
    03:00 +25°C° 0 mm 1 mps 759 mmHg 79%
    04:00 +25°C° 0.1 mm 1 mps 759 mmHg 81%
    05:00 +25°C° 0.1 mm 2 mps 759 mmHg 83%
    06:00 +24°C° 0.1 mm 2 mps 760 mmHg 85%
    07:00 +26°C° 0.2 mm 2 mps 760 mmHg 76%
    08:00 +28°C° 0.2 mm 2 mps 761 mmHg 68%
    09:00 +30°C° 0.2 mm 3 mps 761 mmHg 59%
    10:00 +33°C° 0 mm 3 mps 761 mmHg 51%
    11:00 +36°C° 0 mm 2 mps 760 mmHg 42%
    12:00 +38°C° 0 mm 2 mps 760 mmHg 33%
    13:00 +38°C° 0 mm 2 mps 759 mmHg 35%
    14:00 +37°C° 0 mm 3 mps 758 mmHg 37%
    15:00 +36°C° 0 mm 3 mps 757 mmHg 38%
    16:00 +35°C° 0 mm 3 mps 757 mmHg 43%
    17:00 +33°C° 0 mm 3 mps 757 mmHg 47%
    18:00 +31°C° 0 mm 3 mps 757 mmHg 51%
    19:00 +30°C° 0 mm 3 mps 758 mmHg 58%
    20:00 +29°C° 0 mm 3 mps 759 mmHg 64%
    21:00 +28°C° 0 mm 3 mps 760 mmHg 70%
    22:00 +27°C° 0 mm 3 mps 760 mmHg 73%
    23:00 +27°C° 0 mm 2 mps 760 mmHg 75%

    24 August, Friday

    Time Temperature Precipitation Wind Pressure Humidity
    00:00 +26°C° 0 mm 2 mps 760 mmHg 77%
    01:00 +26°C° 0 mm 1 mps 759 mmHg 79%
    02:00 +26°C° 0 mm 1 mps 759 mmHg 80%
    03:00 +25°C° 0 mm 1 mps 759 mmHg 81%
    04:00 +25°C° 0 mm 1 mps 759 mmHg 83%
    05:00 +25°C° 0 mm 1 mps 759 mmHg 84%
    06:00 +24°C° 0 mm 1 mps 759 mmHg 85%
    07:00 +27°C° 0.1 mm 1 mps 759 mmHg 75%
    08:00 +29°C° 0.1 mm 2 mps 760 mmHg 66%
    09:00 +31°C° 0.1 mm 2 mps 760 mmHg 56%
    10:00 +34°C° 0 mm 2 mps 759 mmHg 49%
    11:00 +35°C° 0 mm 2 mps 759 mmHg 43%
    12:00 +37°C° 0 mm 2 mps 758 mmHg 36%
    13:00 +37°C° 0 mm 3 mps 758 mmHg 37%
    14:00 +36°C° 0 mm 3 mps 757 mmHg 38%
    15:00 +36°C° 0 mm 4 mps 756 mmHg 39%
    16:00 +35°C° 0 mm 4 mps 757 mmHg 43%
    17:00 +33°C° 0 mm 4 mps 757 mmHg 48%
    18:00 +32°C° 0 mm 4 mps 757 mmHg 52%
    19:00 +30°C° 0 mm 3 mps 758 mmHg 58%
    20:00 +29°C° 0 mm 3 mps 758 mmHg 64%
    21:00 +27°C° 0 mm 3 mps 759 mmHg 70%
    22:00 +27°C° 0 mm 3 mps 759 mmHg 71%
    23:00 +27°C° 0 mm 3 mps 759 mmHg 71%

    25 August, Saturday

    Time Temperature Precipitation Wind Pressure Humidity
    00:00 +27°C° 0 mm 3 mps 759 mmHg 72%
    01:00 +26°C° 0.1 mm 3 mps 758 mmHg 74%
    02:00 +26°C° 0.1 mm 2 mps 758 mmHg 75%
    03:00 +26°C° 0.1 mm 1 mps 758 mmHg 76%
    04:00 +25°C° 0.3 mm 1 mps 758 mmHg 78%
    05:00 +25°C° 0.3 mm 2 mps 758 mmHg 79%
    06:00 +25°C° 0.3 mm 2 mps 758 mmHg 81%
    07:00 +26°C° 0.1 mm 2 mps 759 mmHg 73%
    08:00 +28°C° 0.1 mm 2 mps 759 mmHg 65%
    09:00 +30°C° 0.1 mm 3 mps 759 mmHg 57%
    10:00 +33°C° 0 mm 3 mps 759 mmHg 50%
    11:00 +34°C° 0 mm 3 mps 758 mmHg 44%
    12:00 +36°C° 0 mm 3 mps 758 mmHg 37%
    13:00 +36°C° 0 mm 3 mps 757 mmHg 37%
    14:00 +36°C° 0 mm 3 mps 757 mmHg 37%
    15:00 +36°C° 0 mm 3 mps 756 mmHg 36%
    16:00 +35°C° 0 mm 3 mps 757 mmHg 38%
    17:00 +34°C° 0 mm 3 mps 757 mmHg 40%
    18:00 +32°C° 0 mm 2 mps 757 mmHg 42%
    19:00 +31°C° 0 mm 2 mps 758 mmHg 48%
    20:00 +29°C° 0 mm 3 mps 758 mmHg 55%
    21:00 +28°C° 0 mm 3 mps 759 mmHg 61%
    22:00 +27°C° 0 mm 2 mps 759 mmHg 65%
    23:00 +27°C° 0 mm 2 mps 759 mmHg 69%
    Show more